Regional Weather Roundup
Issued by NWS Albany, NY

Home | Current Version | Previous Version | Graphics & Text | Print | Product List | Glossary Off
Versions: 1 2 3 4 5 6 7 8 9 10 11 12 13 14 15 16 17 18 19 20 21 22 23 24 25 26 27

000
ASUS41 KALY 040710
RWRALY

NEW YORK STATE HOURLY WEATHER ROUNDUP
NATIONAL WEATHER SERVICE ALBANY NY
300 AM EDT WED MAY 04 2016

NOTE: "FAIR" INDICATES FEW OR NO CLOUDS BELOW 12,000 FEET WITH NO
SIGNIFICANT WEATHER AND/OR NO OBSTRUCTIONS TO VISIBILITY.

NYZ032-033-038>043-046>054-057>066-NYZ062>081-082-084-040800-
EAST


CITY           SKY/WX    TMP DP  RH WIND       PRES   REMARKS
ALBANY         DRZL/FOG  49  47  93 CALM      29.81S VSB 1
GLENS FALLS    CLOUDY    49  41  74 CALM      29.81S
POUGHKEEPSIE   CLOUDY    53  50  89 CALM      29.80S FOG
MONTGOMERY     CLOUDY    50  49  96 CALM      29.80S FOG
WHITE PLAINS     N/A     48  47  96 E7        29.80S FOG
NEW YORK CITY  CLOUDY    51  50  96 E8        29.81R
CENTRAL PARK   CLOUDY    50  47  89 E5        29.83S FOG
$$

NYZ005>009-017-018-044>046-055-056-040800-
CENTRAL


CITY           SKY/WX    TMP DP  RH WIND       PRES   REMARKS
FULTON         CLOUDY    50  45  83 CALM      29.77F
SYRACUSE       CLOUDY    48  42  80 SE3       29.76F
ROME           CLOUDY    49  45  86 E6        29.79F
ELMIRA         CLOUDY    46  42  86 CALM      29.76F
BINGHAMTON     CLOUDY    46  45  96 CALM      29.76F
MONTICELLO     CLOUDY    46  45  93 SE3       29.80S VSB 1/2
$$

NYZ026>034-041>043-087-040800-
NORTH


CITY           SKY/WX    TMP DP  RH WIND       PRES   REMARKS
WATERTOWN      CLOUDY    48  42  80 CALM      29.77S
FORT DRUM      NOT AVBL
MASSENA        CLOUDY    45  38  76 E8        29.80F
SARANAC LAKE   CLOUDY    40  35  83 CALM      29.76F
PLATTSBURGH    NOT AVBL
$$

NYZ001>004-010>016-019>021-085-040800-
WEST


CITY           SKY/WX    TMP DP  RH WIND       PRES   REMARKS
NIAGARA FALLS  MOCLDY    45  40  82 SW5       29.75F
BUFFALO        MOCLDY    45  38  76 CALM      29.76F
DUNKIRK        CLEAR     38  35  89 CALM      29.76F
JAMESTOWN      CLOUDY    45  37  76 CALM      29.75F
WELLSVILLE     CLOUDY    44  42  93 CALM      29.76F
ROCHESTER      CLOUDY    46  41  82 CALM      29.76F
PENN YAN       CLOUDY    49  43  80 SW3       29.76F
$$

             KEY
       WCI = WIND CHILL INDEX
       VSB = VISIBILITY
       HX  = HEAT INDEX
$$




USA.gov is the U.S. government's official web portal to all federal, state and local government web resources and services.